Simultaneous Nadir Overpasses (SNOs) Predictions

Prediction of SNOs between NOAA-20 and AQUA Satellite Orbit:

Table of predicted SNOs for the next 14.0 days since TLE Epoch: 9/18/2020
Index Date (NOAA-20) Time (NOAA-20) Lat,Lon (NOAA-20) SZA (NOAA-20 ) Date (AQUA) Time (AQUA) Lat,Lon (AQUA) SZA (AQUA ) Distance(km) Time Diff (sec)
1 09/20/2020 06:46:13 -76.29, 138.32 84.34 09/20/2020 06:46:24 -76.28, 138.25 84.33 2.08 11
2 09/20/2020 07:36:41 77.00, -51.64 94.80 09/20/2020 07:35:34 77.00, -51.61 94.85 0.75 67
3 09/22/2020 22:12:39 75.38, 83.77 97.69 09/22/2020 22:13:42 75.38, 83.79 97.63 0.50 63
4 09/22/2020 23:02:57 -76.66,-104.54 83.82 09/22/2020 23:02:44 -76.65,-104.64 83.78 2.81 13
5 09/25/2020 14:29:23 75.80,-159.10 98.16 09/25/2020 14:30:02 75.80,-159.12 98.14 0.77 39
6 09/25/2020 15:19:51 -76.62, 11.11 82.81 09/25/2020 15:19:13 -76.63, 11.17 82.79 1.83 38
7 09/28/2020 06:46:06 76.27, -41.73 98.58 09/28/2020 06:46:21 76.26, -41.82 98.60 2.60 15
8 09/28/2020 07:36:36 -76.98, 128.31 82.28 09/28/2020 07:35:34 -76.98, 128.30 82.22 0.15 62
9 09/30/2020 22:12:33 -75.46, -95.96 79.52 09/30/2020 22:13:41 -75.45, -96.02 79.56 1.81 68
10 09/30/2020 23:02:58 76.32, 74.23 99.49 09/30/2020 23:02:48 76.32, 74.26 99.49 0.93 10
